Regional Weather Roundup
Issued by NWS

Home | Current Version | Previous Version | Graphics & Text | Print | Product List | Glossary On
Versions: 1 2 3 4 5 6 7 8 9 10 11 12 13 14 15 16 17 18 19 20 21 22 23 24 25 26 27 28 29 30 31 32 33 34 35 36 37 38 39 40 41 42 43 44 45 46 47 48 49 50
000
ASUS45 KCYS 010210
RWRWY

WYOMING REGIONAL WEATHER ROUNDUP
NATIONAL WEATHER SERVICE CHEYENNE WY
800 PM MDT FRI SEP 30 2016

NOTE:  "FAIR" INDICATES FEW OR NO CLOUDS BELOW 12,000 FEET
WITH NO SIGNIFICANT WEATHER AND/OR OBSTRUCTIONS TO VISIBILITY.

WYZ001-010300-
YELLOWSTONE NATIONAL PARK

CITY           SKY/WX    TMP DP  RH WIND       PRES   REMARKS
LK YELLOWSTONE   N/A     43  43 100 NW5       30.31S
W YELLOWSTONE  NOT AVBL

$$
WYZ002>013-054>058-071-098>099-010300-
NORTHERN WYOMING

CITY           SKY/WX    TMP DP  RH WIND       PRES   REMARKS
JACKSON        CLEAR     54  46  76 S5        30.23S
CODY           FAIR      63  47  55 CALM      30.12R
GREYBULL       FAIR      68  51  54 CALM      30.03R
WORLAND        FAIR      59  47  64 SE5       30.04S
SHERIDAN       FAIR      61  50  67 CALM      30.04S
BUFFALO        FAIR      66  43  43 W14       30.11S
GILLETTE       FAIR      56  48  74 CALM      30.06R
HULETT         FAIR      63  50  63 S6        30.07R
NEWCASTLE      FAIR      66  43  42 E10G17    30.06S

$$
WYZ014>020-022>026-101>103-010300-
CENTRAL WYOMING

CITY           SKY/WX    TMP DP  RH WIND       PRES   REMARKS
BIG PINEY      FAIR      56  37  49 CALM      30.25R
PINEDALE       MOCLDY    50  36  57 N9        30.26S
DUBOIS         MOCLDY    57  39  51 W18       30.24R
LANDER         CLOUDY    63  43  48 SW6       30.11S
RIVERTON       FAIR      65  41  41 E5        30.13S
CASPER         FAIR      55  41  59 NW9       30.12S
DOUGLAS        FAIR      59  45  59 SE7       30.10S

$$
WYZ021-027>030-104>119-010300-
SOUTHERN WYOMING

CITY           SKY/WX    TMP DP  RH WIND       PRES   REMARKS
EVANSTON       FAIR      57  41  55 S7        30.25F
FORT BRIDGER   FAIR      56  41  56 SW8       30.28S
ROCK SPRINGS   MOCLDY    58  43  57 S8        30.24R
DIXON          CLOUDY    56  43  61 NE5       30.27R
RAWLINS        FAIR      58  38  47 SW8       30.23S
SARATOGA       MOCLDY    52  41  66 SE7       30.26S
LARAMIE        MOCLDY    56  40  55 NW5       30.25S
CHEYENNE       FAIR      57  46  66 S10       30.20F
TORRINGTON     CLOUDY    62  48  60 E12       30.08S
PINE BLUFFS    FAIR      59  45  58 SE8       30.17R

$$



USA.gov is the U.S. government's official web portal to all federal, state and local government web resources and services.